Location: Unspecified
(40.7945°N, 111.1337°W)
Time: 04:00:34
(UTC-06:00)

Vanguard 1 - Pass Details

Date: 03 July 2019
Orbit: 653 x 3830 km, 34.2° (Epoch: 17 October)

Event Time Altitude Azimuth Distance (km) Brightness Sun altitude
Rises 05:23:16 0° 277° (W) 7,779 14.2 -6.2°
Reaches altitude 10° 05:29:07 10° 274° (W) 6,486 13.8 -5.3°
Maximum altitude 05:47:32 56° 204° (SSW) 2,710 12.1 -2.5°
Drops below altitude 10° 05:57:49 10° 129° (SE) 3,807 13.4 -0.8°
Sets 06:00:20 0° 124° (SE) 4,482 13.8 -0.4°
